Location: Feigenhofen
(48.4939°N, 10.7793°E)
Time: 05:16:37
(UTC+00:00)

Cosmos 1300 - Pass Details

Date: 26 May 2022
Orbit: 506 x 509 km, 82.5° (Epoch: 24 June)

Event Time Altitude Azimuth Distance (km) Brightness Sun altitude
Rises 00:55:54 0° 340° (NNW) 2,623 7.0 -16.8°
Reaches altitude 10° 00:58:13 10° 329° (NNW) 1,732 5.8 -16.6°
Maximum altitude 01:01:30 28° 270° (W) 969 3.8 -16.4°
Enters shadow 01:02:13 26° 249° (WSW) 1,017 3.8 -16.3°
